千帆星座-44 (QIANFAN-44)

导读

QIANFAN-44 是中国北斗卫星导航系统的一部分,属于北斗三号工程的组网卫星。该卫星于2023年成功发射,主要用于提供高精度定位、导航和授时服务,提升全球范围内的系统性能和稳定性。QIANFAN-44 采用先进技术和国产化设备,增强了系统的抗干扰能力和多模兼容性,对推动我国卫星导航产业发展、保障国家安全和促进民用领域应用具有重要意义。

Basic Information
目录编号:
62245
目录名称:
QIANFAN-44
国际标识:
2024-232J
轨道中心:
EARTH
卫星名称:
千帆星座-44
卫星全名:
千帆星座-44 (QIANFAN-44)
卫星状态:
在轨 (已飞行600 天)
发射日期:
2024-12-05 UTC
国别 :
中国 (CN)
星等 :
--
Orbit Information
数据来源 国际轨道数据 AOE轨道数据
星历时间 2026-07-27T22:25:34+0800
12小时前
查看轨道信息
2026-07-27T03:00:00+0800
1天前
查看轨道信息
半长轴 7446.667km 7446.671km
偏心率 0.0011719 0.0011841
轨道倾角 89.008° 89.008°
近地点辐角 255.880° 258.071°
升交点赤经 18.285° 18.366°
平近点角 104.105° 127.522°
近地点 1059.803km 1059.716km
远地点 1077.257km 1077.352km
周期 106.587分钟 106.587分钟
每日圈数 13.510141 13.510131
Detailed Information
卫星平台:
44
覆盖范围:
全球
运营商:
上海垣信卫星科技有限公司
运营商所在国:
中国
使用方式:
暂无
Satellite Introduction
千帆星座,也被称为“G60星链”计划,是中国版“星链”的重要组成部分,旨在打造一个由1.4万多颗低轨宽频多媒体卫星构成的庞大星座。千帆星座计划由上海垣信卫星科技有限公司负责实施,于2023年启动建设。该项目是我国第二个低轨卫星大星座,旨在通过构建庞大的卫星网络,为全球用户提供高质量的通信和宽带互联网服务。
2D Orbit Map
3D Orbit Map
Orbit Altitude Analysis Chart
Orbit Inclination Analysis Chart
Orbit Comprehensive Analysis Chart
View Comprehensive Chart